星链-3140 (STARLINK-3140 )

导读 | 星芒AI

STARLINK-3140 是 SpaceX Starlink 卫星互联网项目中的第 3140 颗卫星,属于“星链”低轨卫星群的一部分。该卫星旨在为全球用户提供高速、低延迟的互联网服务,尤其关注网络覆盖不足的地区。它运行在约 550 公里的低地球轨道,采用先进通信技术,支持宽带数据传输。STARLINK-3140 的发射和运行有助于增强 Starlink 网络的稳定性和容量,推动全球互联网接入的普及。

基本信息
目录编号:
49460
目录名称:
STARLINK-3140
国际标识:
2021-104BE
轨道中心:
EARTH
卫星名称:
星链-3140
卫星全名:
星链-3140 (STARLINK-3140 )
卫星状态:
在轨 (已飞行1497 天)
发射日期:
2021-11-13 UTC
国别 :
美国 (US)
星等 :
--
轨道信息
数据来源 国际轨道数据
星历时间: 2025-12-19T05:41:16+0800
1天前
查看轨道信息
半长轴: 6917.903km
偏心率: 0.000139
轨道倾角: 53.216°
近地点辐角 89.215°
升交点赤经 221.782°
平近点角 270.900°
近地点: 538.806km
远地点: 540.73km
周期: 95.438分钟
每日圈数: 15.088329
详细信息
固有亮度:
5
最大亮度:
2.5
卫星平台:
Starlink v1.5
覆盖范围:
全球
运营商:
太空探索技术公司
运营商所在国:
美国
制造商(研发单位):
太空探索技术公司
制造商所在国:
美国
使用方式:
暂无
卫星简介
星链(Starlink)计划是由太空探索技术公司(SpaceX)提出的一个巨型低轨卫星互联网星座项目,计划在2019年至2024年间在太空搭建由约1.2万颗卫星组成的“星链”网络,其中1584颗将部署在地球上空550千米处的近地轨道,并从2020年开始工作。该卫星仍在工作。
2D轨道图
3D轨道图
轨道高度分析图
轨道倾角分析图
轨道综合分析图
查看轨道综合分析图